This is the latest recevied weather packets stored in our database for station/object LY3FF-10. If no packets are shown the sender has not sent any weather packets the latest 10 day(s).
| Time | Temp. | Humidity | Pressure | Rain* | Wind** | Luminosity | Snow |
|---|---|---|---|---|---|---|---|
| 1787532670 | 13.33° C | 90% | 995 hPa | - | - | - | - |
| 1787531824 | 12.78° C | 90% | 995 hPa | - | - | - | - |
| 1787530980 | 12.78° C | 90% | 994.9 hPa | - | - | - | - |
| 1787530080 | 13.33° C | 90% | 994.9 hPa | - | - | - | - |
| 1787529210 | 13.33° C | 90% | 994.8 hPa | - | - | - | - |
| 1787528410 | 13.33° C | 90% | 994.9 hPa | - | - | - | - |
| 1787527575 | 12.78° C | 90% | 994.9 hPa | - | - | - | - |
| 1787526850 | 12.78° C | 89% | 994.7 hPa | - | - | - | - |
| 1787526010 | 12.22° C | 90% | 994.7 hPa | - | - | - | - |
| 1787525270 | 12.78° C | 90% | 994.8 hPa | - | - | - | - |
| 1787524520 | 12.78° C | 90% | 994.8 hPa | - | - | - | - |
| 1787523724 | 12.78° C | 90% | 994.8 hPa | - | - | - | - |
| 1787522985 | 12.78° C | 90% | 994.7 hPa | - | - | - | - |
| 1787522210 | 12.78° C | 91% | 994.7 hPa | - | - | - | - |
| 1787521440 | 12.78° C | 90% | 994.6 hPa | - | - | - | - |
| 1787520580 | 12.78° C | 89% | 994.7 hPa | - | - | - | - |
| 1787519735 | 12.78° C | 90% | 994.7 hPa | - | - | - | - |
| 1787518935 | 12.78° C | 89% | 994.6 hPa | - | - | - | - |
| 1787518120 | 13.33° C | 90% | 994.7 hPa | - | - | - | - |
| 1787517250 | 13.33° C | 88% | 994.6 hPa | - | - | - | - |
| 1787516372 | 13.33° C | 88% | 994.6 hPa | - | - | - | - |
| 1787515614 | 13.33° C | 88% | 994.6 hPa | - | - | - | - |
| 1787514835 | 13.33° C | 88% | 994.6 hPa | - | - | - | - |
| 1787513965 | 13.33° C | 87% | 994.6 hPa | - | - | - | - |
| 1787513095 | 13.89° C | 86% | 994.4 hPa | - | - | - | - |
* Rain since midnight (hover to see other rain measurements)
** Current wind speed in m/s (hover to see current wind gust speed)